RH
9 8 7 6 7 12 25 35 30 21 11 8 35 47 73 85 94 82 61 58 52 27 10 8 14 17 18 16 12 9 4 3 4 5 6 6 6 6 5 5 4 4 4
10 10 10 9 7 6 9 23 35 33 23 11 7 27 48 65 84 92 84 54 48 48 29 9 10 16 20 17 17 13 8 5 3 4 4 5 5 6 6 5 4 4 4
8 9 9 11 11 8 6 8 24 32 34 25 13 8 36 50 58 74 91 80 47 39 44 33 9 11 29 28 19 17 14 7 5 3 4 4 4 4 6 6 5 4 4
5 5 7 9 10 11 9 7 7 23 35 36 28 13 8 27 49 56 62 86 83 42 36 48 38 10 12 36 32 20 19 15 7 5 4 4 4 4 5 5 5 3 4
5 4 4 4 7 9 10 10 7 6 17 36 36 29 15 9 20 48 62 62 90 93 44 32 43 35 11 18 41 45 24 20 15 6 4 4 3 3 4 4 4 3 4
3 3 3 3 4 5 9 9 10 8 7 17 27 37 31 14 9 17 70 66 83 93 94 60 29 42 35 16 26 96 73 23 22 16 9 5 4 4 3 3 3 4 4
2 2 2 3 3 4 5 8 9 9 8 10 15 25 38 32 12 11 93 67 84 87 93 96 42 30 48 34 22 58 91 55 33 35 46 9 8 6 4 4 4 4 5
2 2 2 2 2 3 3 4 8 9 9 8 11 13 26 42 31 14 9 26 64 94 95 98 89 48 46 55 36 41 75 85 60 42 42 33 20 6 4 4 4 4 5
4 3 2 2 2 2 2 3 4 7 8 9 8 11 20 38 38 30 18 17 59 77 94 95 96 93 45 61 61 47 28 26 71 90 52 32 26 18 10 5 4 4 6
8 6 6 5 3 2 2 2 3 4 7 8 9 10 10 20 39 39 29 22 47 70 56 73 96 96 88 52 76 66 50 53 87 62 80 45 22 17 22 12 4 4 5
8 9 8 7 6 4 2 2 2 3 4 6 8 9 10 19 29 46 43 32 30 30 54 70 97 95 97 76 67 75 60 51 72 52 94 50 25 14 13 20 7 4 5
8 9 8 9 8 7 5 3 3 3 4 5 7 9 10 12 28 40 40 44 33 33 32 90 97 97 96 96 83 69 70 57 55 85 79 55 31 21 12 14 11 5 5
11 12 13 12 12 10 8 6 4 3 4 4 6 8 10 11 16 32 46 54 46 31 27 80 84 98 91 96 96 76 70 61 58 97 53 67 45 34 17 9 9 6 5
16 15 14 14 16 16 12 9 7 4 4 4 5 6 10 12 15 21 42 61 59 43 23 23 68 92 89 96 97 95 81 86 71 46 65 96 42 33 37 18 10 4 4
20 19 19 18 16 18 18 14 10 8 5 4 5 5 7 12 15 18 29 56 65 60 34 88 99 96 98 99 96 98 97 95 91 84 86 36 39 34 29 23 19 15 8
29 29 28 21 17 16 21 20 14 10 8 6 5 6 6 10 14 18 19 40 64 64 43 94 96 92 98 98 95 96 89 96 97 96 89 50 30 50 25 17 20 34 25
33 32 34 31 28 19 21 24 20 14 11 8 6 6 6 7 12 16 18 28 60 64 55 46 76 94 70 90 74 72 78 75 90 99 94 88 51 26 17 20 34 46 46
44 46 44 44 41 30 29 30 28 20 13 11 7 6 7 7 9 13 15 18 39 63 59 50 42 44 34 51 100 88 62 72 90 100 100 97 72 45 18 74 96 97 65
59 59 52 52 52 40 39 42 35 28 20 13 10 7 7 8 8 10 12 12 20 44 60 77 62 48 40 31 49 94 86 90 98 99 97 97 93 66 31 78 88 67 85
74 72 62 59 60 71 64 58 45 34 27 17 12 9 7 8 8 9 10 11 12 26 52 98 68 84 82 40 32 66 96 71 80 98 99 94 95 87 88 96 89 85 93
73 74 62 60 60 76 71 59 49 38 28 22 13 12 9 8 8 9 9 10 9 17 49 97 94 100 87 48 46 61 90 100 96 98 92 97 97 94 86 97 97 96 98
88 83 62 63 54 65 67 57 49 38 28 22 14 13 11 9 9 9 8 9 8 10 31 97 91 95 98 100 100 66 95 100 94 93 80 86 96 94 98 97 98 99 95
97 87 74 64 60 51 53 49 39 35 30 22 19 17 15 11 9 9 9 8 8 8 21 100 81 94 100 100 91 100 100 98 99 89 90 80 91 91 97 97 96 91 87
84 76 72 74 67 52 46 45 40 36 30 27 29 25 18 14 10 8 9 8 8 8 12 84 93 99 100 97 98 100 96 96 89 88 95 95 94 86 100 100 95 92 93
77 68 63 58 55 53 53 48 43 40 35 30 28 24 18 15 12 10 8 8 8 8 7 12 27 72 94 98 99 100 94 96 97 86 81 96 88 82 94 96 100 99 98
77 68 62 55 54 49 42 35 32 31 32 28 23 21 18 15 13 10 8 7 8 8 7 7 8 29 58 69 93 67 100 96 100 96 95 98 95 95 83 83 95 99 96
Wind_Speed
66 67 66 64 64 64 64 61 58 57 55 53 51 53 51 49 45 43 44 44 41 40 42 45 42 39 37 36 33 32 32 36 38 36 34 32 30 28 25 22 20 21 19
71 71 72 71 70 68 68 67 64 62 60 58 57 54 54 54 52 49 48 49 46 45 42 46 48 44 42 39 37 36 35 35 39 39 38 37 34 32 29 27 23 23 22
78 75 74 76 75 74 72 71 69 68 65 64 61 60 56 56 56 56 54 51 50 48 47 45 48 49 45 43 41 40 38 38 38 39 40 38 38 36 32 30 27 25 24
82 81 79 77 81 80 78 76 74 72 69 68 67 64 62 59 58 58 59 58 52 53 51 49 47 50 50 47 45 43 42 41 40 40 40 40 40 38 36 34 31 29 27
87 87 85 84 83 84 84 81 79 77 75 73 71 69 67 65 61 60 59 59 56 56 56 54 52 51 53 52 51 48 46 43 41 41 41 40 41 40 38 37 35 32 30
91 91 91 91 90 88 88 88 85 83 80 78 74 73 72 70 67 65 61 59 57 60 57 58 57 56 54 53 50 58 54 47 43 42 44 45 44 39 38 37 36 34 32
104 99 96 94 94 93 92 92 93 89 86 84 79 77 75 75 74 75 57 61 56 62 62 61 61 58 58 55 53 50 50 42 41 39 44 46 45 42 40 38 37 36 34
110 107 101 97 97 97 97 97 96 96 93 90 86 82 79 81 78 76 75 72 63 70 61 58 64 62 62 58 59 56 45 51 45 48 43 44 46 44 42 40 38 37 36
77 80 85 90 92 99 101 100 101 100 100 96 92 88 85 84 83 79 77 75 75 72 67 56 57 70 67 62 61 59 57 55 55 45 46 45 44 44 44 43 40 40 39
54 55 59 64 71 88 99 103 103 103 105 100 97 95 90 86 88 85 82 79 69 62 59 58 57 64 72 65 62 59 54 52 56 52 58 46 44 42 44 45 43 42 41
53 53 54 53 58 65 86 102 104 106 108 107 101 99 95 90 92 89 87 82 78 72 57 58 61 53 65 72 61 59 56 59 53 53 44 47 44 43 41 45 45 44 43
54 55 57 56 53 57 65 85 104 107 110 112 107 101 100 95 95 93 89 87 79 76 69 60 60 51 44 62 68 60 59 55 47 61 52 48 48 45 42 44 48 46 45
56 56 56 58 58 56 58 64 83 102 110 114 113 105 102 99 96 97 93 89 85 78 75 71 56 47 51 53 69 65 61 58 60 51 53 57 52 49 46 44 47 47 47
51 52 53 56 60 61 58 59 62 80 100 110 113 108 103 102 100 98 95 92 86 79 76 69 65 59 57 49 55 63 67 64 62 61 59 50 49 51 49 47 45 45 47
49 50 53 54 57 63 63 60 59 62 78 98 107 107 105 104 103 100 97 96 87 83 73 65 54 58 48 49 49 52 66 71 73 68 62 60 57 53 53 50 48 45 45
50 48 50 54 57 60 65 62 59 58 63 78 95 104 104 106 104 101 100 95 93 85 81 70 55 44 46 53 50 51 50 54 68 71 68 60 58 54 56 51 51 46 46
50 49 49 49 51 56 62 63 58 57 57 64 81 94 102 104 106 104 102 97 88 90 86 91 84 71 63 46 51 47 48 52 56 66 71 65 59 57 54 50 53 52 49
44 43 43 42 44 48 55 59 58 55 55 57 69 83 95 102 106 106 104 101 99 90 90 93 94 82 74 76 56 46 51 53 52 66 70 67 61 59 58 53 42 50 46
41 39 39 37 37 41 48 53 55 53 51 54 59 74 88 97 103 105 105 103 99 94 88 85 84 84 80 79 75 56 46 58 63 64 71 66 65 62 61 59 64 67 50
37 37 34 32 31 34 39 45 50 50 49 50 55 65 79 91 98 102 103 102 99 95 89 79 75 81 84 90 79 65 55 59 58 48 63 68 65 64 61 63 60 60 52
34 32 29 26 25 28 32 38 43 45 45 47 53 58 70 83 90 96 101 102 99 96 89 91 89 67 71 75 72 70 57 64 73 56 51 55 68 67 73 61 56 51 56
30 24 23 21 21 25 28 32 36 39 41 43 48 56 61 72 82 87 95 99 100 97 96 85 89 82 76 72 66 75 64 61 66 54 53 51 51 70 65 63 62 56 46
21 19 19 17 16 21 26 29 32 35 38 39 44 51 56 62 74 80 87 94 98 98 98 96 97 87 75 75 79 72 72 73 63 61 55 54 57 56 63 63 55 52 50
16 13 12 10 11 14 18 23 28 30 33 36 40 45 50 56 61 74 82 89 95 98 101 106 103 92 80 84 70 79 82 72 69 64 63 58 57 55 58 59 59 60 56
14 12 9 7 7 7 10 14 19 23 27 32 38 42 44 48 55 61 75 85 90 96 99 104 106 110 101 95 74 75 75 76 70 71 70 69 62 55 55 53 53 51 49
16 12 10 9 7 5 6 11 16 20 24 28 32 37 41 44 48 55 64 77 86 91 97 100 104 106 105 104 92 81 81 72 77 72 66 68 67 67 60 58 56 56 56
Wind_Direction
261 261 259 257 257 257 254 250 248 248 248 249 248 248 247 243 239 229 237 237 235 234 229 229 227 226 228 226 226 227 228 227 230 233 236 238 241 242 244 250 254 251 248
262 259 258 256 253 253 254 251 248 245 245 245 246 246 246 245 242 238 235 236 235 235 233 230 228 227 226 229 226 226 226 227 231 233 236 239 242 244 247 250 254 251 250
266 262 259 257 255 251 249 250 248 245 242 243 242 244 244 245 244 242 237 236 235 234 233 232 231 230 229 227 229 227 225 227 229 232 234 236 240 244 247 251 253 250 248
264 262 261 257 255 254 249 247 247 245 242 240 241 240 242 242 243 242 241 236 235 233 232 231 231 231 230 230 230 231 228 225 226 229 233 235 236 241 244 248 252 250 245
267 264 261 257 253 251 252 247 244 244 243 239 238 239 239 241 241 243 241 239 233 234 233 231 231 232 229 229 230 232 231 228 226 229 232 235 237 238 242 246 248 247 243
268 263 260 257 253 250 246 249 246 242 241 241 237 237 237 238 238 241 236 237 236 235 235 232 230 230 231 229 226 243 221 224 226 226 231 232 235 237 240 242 244 243 240
272 267 261 255 252 249 246 242 245 244 240 239 238 236 236 235 236 238 236 237 237 238 237 235 231 229 231 230 226 226 210 223 231 231 232 232 234 235 236 239 241 241 239
275 271 266 259 253 247 244 241 239 242 242 238 236 236 233 235 234 235 237 237 239 239 236 239 234 228 229 228 230 223 214 231 230 232 230 231 234 234 236 238 238 238 237
274 272 268 261 252 247 244 240 237 236 239 239 235 234 232 232 234 233 235 236 237 246 245 237 239 230 228 226 229 225 227 230 232 233 229 233 234 235 235 237 238 237 236
275 273 269 263 253 243 239 239 237 234 234 238 235 233 231 231 232 233 233 235 236 239 246 246 235 235 226 225 228 230 228 231 224 235 242 232 233 234 235 235 238 237 236
276 274 274 270 261 249 236 232 232 232 231 233 235 233 231 228 231 230 230 233 232 233 237 244 231 230 231 220 226 229 227 225 236 240 231 228 233 236 237 234 235 237 238
277 273 270 268 266 257 249 236 228 227 229 229 232 232 230 228 229 229 229 231 231 233 234 234 234 228 235 233 223 227 229 228 233 236 229 231 236 235 237 235 235 236 238
279 274 268 263 262 260 254 248 236 227 224 226 229 229 229 228 228 229 228 229 230 230 231 235 243 229 234 241 229 224 229 229 225 231 235 238 230 236 235 236 236 237 239
279 275 271 263 256 255 255 250 245 235 226 223 227 228 226 227 227 227 227 230 227 227 229 231 234 232 228 239 229 234 228 229 229 231 232 244 236 236 236 236 238 239 241
282 278 274 267 260 251 249 250 246 242 233 225 224 226 224 224 225 225 226 228 228 224 222 222 218 219 218 219 231 231 233 232 230 229 229 233 234 235 238 239 238 239 242
282 282 279 272 261 252 245 245 244 241 237 230 223 223 223 222 223 224 224 225 227 224 216 215 212 213 226 221 225 224 233 233 235 232 228 228 232 234 237 238 242 236 242
283 283 284 277 264 247 241 240 241 240 237 232 226 221 221 220 221 222 223 223 225 223 218 222 225 233 230 221 223 226 234 226 232 233 231 224 226 232 234 239 244 237 237
288 288 287 278 266 251 238 236 237 238 236 233 227 221 219 219 219 221 222 222 222 221 219 220 227 229 227 232 229 234 230 231 233 232 230 226 221 227 229 229 232 223 236
293 291 291 283 269 249 235 232 234 236 236 232 228 223 219 218 219 220 221 222 222 222 219 221 226 228 229 228 228 231 233 229 229 224 229 229 224 223 229 229 227 240 235
293 293 293 286 266 246 234 230 232 235 236 233 229 224 220 218 218 220 220 221 221 220 218 218 219 227 227 225 228 230 230 231 229 227 232 226 227 227 228 224 225 228 225
297 292 290 287 263 245 234 229 231 235 237 235 229 226 222 219 219 220 220 220 220 218 214 211 209 218 223 221 224 222 227 222 226 230 227 235 229 228 227 227 221 228 232
301 294 291 290 264 245 236 233 233 236 238 237 232 226 225 222 220 219 219 220 219 217 212 206 209 214 215 212 215 221 218 218 221 228 225 230 230 228 227 224 227 237 237
309 300 294 289 270 251 238 236 238 237 237 235 230 227 225 225 222 220 219 219 218 217 211 207 212 207 204 208 215 213 219 218 220 227 228 228 231 227 231 236 239 232 233
328 318 303 292 277 259 249 243 240 235 235 234 228 225 226 226 225 222 220 219 218 217 213 209 210 212 205 207 208 219 222 222 221 222 225 232 232 227 225 230 233 237 237
335 327 324 312 292 271 253 247 242 236 232 232 229 225 224 227 228 225 221 220 218 217 216 214 214 216 220 221 213 214 221 226 224 223 225 226 220 222 221 220 225 228 230
5 7 3 1 357 328 275 254 245 238 234 231 231 229 224 225 228 228 224 221 220 217 217 215 215 215 217 220 219 216 221 217 219 222 219 224 230 225 222 225 224 228 230